Flag for Austria Weather past 2 weeks in Amstetten, Lower Austria, Austria

Now
37 °F

Partly sunny.


Feels Like: N/A
Forecast: 31 / 47 °F
Wind: N/A

Location: Linz / Hoersching-Flughafen

Current Time: Mar 6, 2015 at 10:54:50 AM

Latest Report: Mar 6, 2015 at 10:00 AM


Visibility: 17 mi

Pressure: 30.66 "Hg

Humidity: 75%

Dew point: 30 °F

Location of AmstettenLocation

Historic Weather in Amstetten — Graph

°F

Amstetten temperature yesterday

Maximum temperature yesterday: 41 °F (at 4:00 PM)
Minimum temperature yesterday: 31 °F (at 11:00 PM)
Average temperature yesterday: 36 °F

Past Weeks' High & Low Weather Summary

 TemperatureHumidityPressure
High48 °F (Mar 3, 4:00 PM)100% (Feb 20, 4:00 AM)30.65 "Hg (Feb 20, 4:00 AM)
Low23 °F (Feb 20, 6:00 AM)42% (Mar 3, 5:00 PM)29.54 "Hg (Feb 21, 5:00 PM)
Average37 °F82%30.05 "Hg
* Reported Feb 19 10:00 AM — Mar 6 10:00 AM, Amstetten, Weather by CustomWeather, © 2015

Note: Actual official high and low records may vary slightly from our data, if they occured in-between our weather recording intervals... More about our weather records

Advertising

Amstetten weather history for previous 24 hours

 ConditionsComfort  
Time TempWeatherWind HumidityBarometerVisibility
10:00 AM
Fri, Mar 6
N/APassing clouds.14 mphN/AN/A10 mi
9:00 AM35 °FOvercast.N/A79%30.65 "Hg19 mi
8:00 AMN/APassing clouds.13 mphN/AN/A6 mi
7:00 AM32 °FOvercast.N/A87%30.63 "Hg19 mi
6:00 AM33 °FOvercast.5 mph84%30.62 "Hg22 mi
5:00 AM34 °FOvercast.6 mph78%30.61 "Hg22 mi
4:00 AM33 °FOvercast.3 mph78%30.60 "Hg22 mi
3:00 AM34 °FOvercast.N/A73%30.61 "Hg28 mi
2:00 AM32 °FOvercast.N/A79%30.61 "Hg22 mi
1:00 AM33 °FOvercast.N/A77%30.60 "Hg28 mi
12:00 AM31 °FPassing clouds.3 mph77%30.61 "Hg22 mi
11:00 PM
Thu, Mar 5
31 °FPassing clouds.N/A79%30.61 "Hg28 mi
10:00 PM34 °FOvercast.N/A75%30.59 "Hg28 mi
9:00 PM33 °FPassing clouds.N/A78%30.58 "Hg22 mi
8:00 PM36 °FPassing clouds.3 mph67%30.56 "Hg31 mi
7:00 PM37 °FPassing clouds.5 mph66%30.54 "Hg31 mi
6:00 PM40 °FPassing clouds.N/A67%30.51 "Hg31 mi
5:00 PM41 °FOvercast.8 mph60%30.49 "Hg31 mi
4:00 PM41 °FOvercast.5 mph61%30.47 "Hg31 mi
3:00 PM40 °FOvercast.6 mph67%30.47 "Hg22 mi
2:00 PM39 °FOvercast.7 mph74%30.48 "Hg25 mi
1:00 PM39 °FOvercast.6 mph75%30.48 "Hg16 mi
12:00 PM39 °FOvercast.6 mph71%30.48 "Hg28 mi
11:00 AM39 °FOvercast.7 mph73%30.48 "Hg13 mi
10:00 AM37 °FPartly sunny.7 mph75%30.49 "Hg14 mi
Weather by CustomWeather, © 2015

See weather overviewHow to use our weather pages